Regional Weather Roundup
Issued by NWS

Home | Current Version | Previous Version | Graphics & Text | Print | Product List | Glossary On
Versions: 1 2 3 4 5 6 7 8 9 10 11 12 13 14 15 16 17 18 19 20 21 22 23 24 25 26 27 28
000
ASUS45 KSLC 161010
RWRUT

UTAH REGIONAL WEATHER ROUNDUP
NATIONAL WEATHER SERVICE SALT LAKE CITY UT
300 AM MST MON JAN 16 2017

UTZ001>011-023>025-161100-

NORTHERN UTAH

CITY           SKY/WX    TMP DP  RH WIND       PRES   REMARKS
BRIGHAM CITY     N/A     12   8  85 N3        30.25S
HILL AFB       CLOUDY    16  10  77 E10       30.22R WCI   4
LOGAN          CLOUDY     1  -1  91 SE3       30.27F FOG
OGDEN          CLOUDY    19  14  81 S5        30.23R WCI  12
SALT LAKE CITY CLOUDY    26  22  84 NW7       30.23R WCI  18
TOOELE VALLEY  CLOUDY    27  25  93 CALM      30.25R
WENDOVER       CLEAR     21  18  86 SW5       30.25R WCI  15
HEBER CITY     LGT SNOW   9   7  92 CALM      30.17S
WEST JORDAN    CLOUDY    26  26 100 NW6       30.22S WCI  19

$$

UTZ011>015-024>027-161100-

CENTRAL/NORTHEAST UTAH

CITY           SKY/WX    TMP DP  RH WIND       PRES   REMARKS
PROVO AIRPORT  CLOUDY    27  22  81 N9        30.22R WCI  18
MOAB/CANYONLAN MOCLDY    32  32 100 W3        29.98S
DELTA          CLOUDY    27  25  93 NW6       30.19S WCI  20
PRICE          CLOUDY    25  17  72 N9        29.99R WCI  15
RICHFIELD      CLOUDY    30  25  80 NE7       30.16F WCI  23
ROOSEVELT      CLOUDY    28  23  80 CALM      30.12R
VERNAL         CLOUDY    25  22  88 CALM      30.09R

$$

UTZ013>016-019>022-027-161100-

SOUTHERN UTAH

CITY           SKY/WX    TMP DP  RH WIND       PRES   REMARKS
BRYCE CANYON   MOCLDY    17  14  88 NW12      30.03R WCI   4
CEDAR CITY     CLOUDY    27  19  72 N9        30.10S WCI  18
MILFORD        CLOUDY    27  23  85 N10       30.15S WCI  17
ST GEORGE      MOSUNNY   34  25  69 SE7       30.10F WCI  28
HANKSVILLE     CLOUDY    36  36 100 MISG      30.03R
KANAB          CLEAR     27  27 100 CALM      30.08S
BLANDING       CLOUDY    34  34 100 CALM      30.01S VSB 3/4

$$

REGIONAL REPORTS     COLORADO/ARIZONA

CITY           SKY/WX    TMP DP  RH WIND       PRES   REMARKS
CRAIG, CO      CLOUDY    16  13  88 NW3       30.08R
GRAND JUNCTION CLOUDY    34  26  72 N5        29.99S WCI  30
RIFLE, CO      CLOUDY    30  21  69 NW8       30.01R WCI  22
MONTROSE, CO   FLURRIES  31  30  96 SE5       30.00R WCI  26
CORTEZ, CO     CLOUDY    35  33  92 W7        29.92S WCI  29
COLORADO CITY  CLOUDY    32  28  86 CALM      30.06R
PAGE, AZ       CLOUDY    41  27  57 NW8       29.98R
GRAND CANYON   PTCLDY    31  30  96 CALM      30.00F
KINGMAN, AZ    MOCLDY    35  29  78 CALM      30.04R
FLAGSTAFF, AZ  LGT SNOW  32  31  96 W3        29.99S FOG

$$

REGIONAL REPORTS    NEVADA/IDAHO/WYOMING

CITY           SKY/WX    TMP DP  RH WIND       PRES   REMARKS
LAS VEGAS, NV  CLOUDY    45  31  58 SW5       30.06R
ELY, NY        CLOUDY    20  18  92 N14       30.17R WCI   7
ELKO, NV       CLOUDY    21  16  81 NW7       30.26R WCI  12
POCATELLO, ID  LGT SNOW   8   6  92 N5        30.31S FOG     WCI   0
BURLEY, ID     CLOUDY     9   6  88 N5        30.30S WCI   1
FORT BRIDGER,    N/A     11  10  98 W14       30.12R WCI  -5
EVANSTON, WY   CLOUDY     2  -3  80 E3        30.11S HAZE
ROCK SPRINGS,  CLOUDY    -1  -5  82 NW8       30.11R WCI -15
KEMMERER, WY   FOG      N/A N/A N/A E3        30.09R VSB 1/2

$$




USA.gov is the U.S. government's official web portal to all federal, state and local government web resources and services.